星链-31328 (STARLINK-31328 )

导读

STARLINK-31328是美国太空探索技术公司Starlink星链互联网星座的一员,于2024年1月29日发射入轨,归属美国所有。星链系统旨在为全球提供低延迟、高速率的卫星互联网服务,该卫星承担着增强星座网络覆盖容量、服务全球用户的任务,推进星链全球组网布局,兼具商业与战略应用价值。

基本信息
目录编号:
58880
目录名称:
STARLINK-31328
国际标识:
2024-020E
轨道中心:
EARTH
卫星名称:
星链-31328
卫星全名:
星链-31328 (STARLINK-31328 )
卫星状态:
在轨 (已飞行956 天)
发射日期:
2024-01-29 UTC
国别 :
美国 (US)
星等 :
--
该卫星已列入 空间交会检测服务 Space Conjunction Data Service (SCDS) ,当前飞行风险评估等级: 无高风险
轨道信息
数据来源 国际轨道数据
星历时间: 2026-09-11T10:52:06+0800
18小时前
查看轨道信息
半长轴: 6840.849km
偏心率: 0.0001387
轨道倾角: 53.161°
近地点辐角 95.940°
升交点赤经 165.241°
平近点角 264.176°
近地点: 461.763km
远地点: 463.661km
周期: 93.848分钟
每日圈数: 15.343973
详细信息
固有亮度:
5
最大亮度:
0.3
卫星平台:
Starlink v2.0 mini
覆盖范围:
全球
运营商:
太空探索技术公司
运营商所在国:
美国
制造商(研发单位):
太空探索技术公司
制造商所在国:
美国
使用方式:
暂无
卫星简介
星链(Starlink)计划是由太空探索技术公司(SpaceX)提出的一个巨型低轨卫星互联网星座项目,计划在2019年至2024年间在太空搭建由约1.2万颗卫星组成的“星链”网络,其中1584颗将部署在地球上空550千米处的近地轨道,并从2020年开始工作。该卫星仍在工作。
2D轨道图
3D轨道图
轨道高度分析图
轨道倾角分析图
轨道综合分析图
查看轨道综合分析图
与全量物体交会距离演化趋势
与全量物体交会风险概率演化趋势